[[{"header":{"parameterUnit":"m.s-1","parameterCategory":1,"la1":30.2991,"la2":30.254,"lo1":-89.0895,"lo2":-89.0444,"dy":0.0017,"dx":0.0017,"nx":28,"ny":28,"refTime":"2023-09-19T21:00:00:Z","depth":0,"parameterNumber":2,"parameterNumberName":"U-component_of_WINDS"},"data":[0,0,0,0,0,0,0,0,0,0,0,0,0,0,0,0,0,0,0,0,0,0,0,0,0,0,0,0,0,0,0,0,0,0,0,0,0,0,0,0,0,0,0,0,0,0,0,0,0,0,0,0,0,0,0,0,0,0,-6.1824,-6.1824,0,-6.186,-6.186,-6.186,-6.1743,-6.174,-6.1736,-6.1733,-6.1767,-6.1771,-6.1775,0,0,0,0,0,0,0,0,0,0,0,0,0,-6.1652,-6.1655,-6.1824,-6.1824,-6.1825,-6.186,-6.186,-6.1861,-6.1744,-6.1739,-6.1735,-6.1731,-6.1766,-6.1771,-6.1776,0,0,0,0,0,0,0,0,0,0,0,0,0,-6.1711,-6.1657,-6.1824,-6.1771,-6.1766,-6.186,-6.186,-6.1861,-6.1745,-6.1739,-6.1734,-6.1729,-6.1764,-6.177,-6.1776,-6.1922,0,0,-6.1796,-6.1798,0,0,0,0,0,0,0,0,-6.1708,-6.1717,-6.1778,-6.1775,-6.177,-6.1792,-6.1812,-6.1881,-6.1746,-6.1753,-6.1733,-6.1726,-6.1779,-6.1784,-6.1802,-6.1923,-6.1925,-6.1796,-6.18,-6.1803,-6.1804,0,0,0,0,0,0,0,-6.1704,-6.1715,-6.1838,-6.1779,-6.1774,-6.1744,-6.1747,-6.1824,-6.1795,-6.1752,-6.1743,-6.1749,-6.1776,-6.1797,-6.1802,-6.1925,-6.1796,-6.1802,-6.1805,-6.1808,-6.2163,-6.2169,0,0,0,0,0,0,-6.1707,-6.1712,-6.1837,-6.1839,-6.1725,-6.1752,-6.1754,-6.179,-6.1794,-6.179,-6.1754,-6.1744,-6.1788,-6.1795,-6.1803,-6.1969,-6.1803,-6.1809,-6.1812,-6.2158,-6.2165,-6.2171,0,0,0,0,0,0,-6.1704,-6.1719,-6.1835,-6.1774,-6.1786,-6.176,-6.1801,-6.1793,-6.1814,-6.1796,-6.179,-6.178,-6.1784,-6.1794,-6.1892,-6.1969,-6.1811,-6.1817,-6.2151,-6.216,-6.2168,-6.2307,0,0,0,0,0,0,-6.1699,-6.1719,-6.1774,-6.1776,-6.179,-6.1925,-6.1806,-6.1798,-6.1825,-6.1812,-6.1819,-6.1815,-6.1781,-6.1883,-6.1899,-6.1975,-6.1822,-6.2144,-6.2155,-6.2165,-6.2295,-6.2319,-6.2339,0,0,0,0,0,-6.1693,-6.1812,-6.1778,-6.1793,-6.1859,-6.193,-6.1938,-6.1897,-6.1832,-6.1887,-6.1875,-6.1815,-6.196,-6.1895,-6.1911,-6.199,-6.2139,-6.2152,-6.2164,-6.2285,-6.2314,-6.2339,0,0,0,0,0,0,-6.182,-6.1811,-6.1773,-6.1896,-6.1915,-6.191,-6.1978,-6.193,-6.1967,-6.1953,-6.19,-6.1903,-6.201,-6.201,-6.1938,-6.2129,-6.2038,-6.2054,-6.2124,-6.2152,-6.2173,-6.2169,-6.1827,0,0,0,0,0,-6.1862,-6.1922,-6.1911,-6.2021,-6.2032,-6.2004,-6.2033,-6.2001,-6.2017,-6.2024,-6.202,-6.2038,-6.2087,-6.212,-6.2165,-6.2296,-6.2294,-6.2359,-6.2381,-6.2399,-6.2413,-6.2479,-6.2506,-6.2213,-6.2212,-6.2212,0,0,-6.195,-6.1953,-6.1993,-6.2046,-6.2056,-6.2117,-6.2011,-6.2081,-6.2124,-6.2035,-6.2125,-6.2124,-6.214,-6.2255,-6.2305,-6.2258,-6.2494,-6.2416,-6.243,-6.2433,-6.2494,-6.2522,-6.2547,-6.2221,-6.222,-6.2218,0,0,-6.2139,-6.215,-6.224,-6.2253,-6.227,-6.2251,-6.2273,-6.2276,-6.2271,-6.2362,-6.2295,-6.2347,-6.2434,-6.2447,-6.2465,-6.2661,-6.2605,-6.2677,-6.279,-6.2855,-6.2878,-6.2899,-6.2964,-6.2988,-6.2691,-6.2692,-6.2692,0,-6.2245,-6.2335,-6.2292,-6.2366,-6.2389,-6.2312,-6.2402,-6.2417,-6.2448,-6.2465,-6.2414,-6.2519,-6.2526,-6.264,-6.2688,-6.2707,-6.2728,-6.2673,-6.2879,-6.2899,-6.2917,-6.2978,-6.3004,-6.27,-6.2699,-6.2698,-6.2697,0,-6.2463,-6.2526,-6.2597,-6.2629,-6.2661,-6.2743,-6.2711,-6.2749,-6.2714,-6.27,-6.2792,-6.2797,-6.284,-6.2866,-6.2833,-6.2975,-6.2945,-6.2888,-6.2794,-6.2954,-6.301,-6.3034,-6.2712,-6.2709,-6.2706,-6.2704,0,0,-6.273,-6.2737,-6.2763,-6.2775,-6.2789,-6.2837,-6.2915,-6.2957,-6.2988,-6.3014,-6.3075,-6.315,-6.3096,-6.3117,-6.3085,-6.3143,-6.3292,-6.3077,-6.3077,-6.3113,-6.3445,-6.3485,-6.3513,-6.3258,-6.3262,-6.3266,-6.3442,0,-6.2912,-6.3045,-6.3008,-6.314,-6.3196,-6.3124,-6.3191,-6.3206,-6.3196,-6.3241,-6.3229,-6.3281,-6.3208,-6.322,-6.3274,-6.3263,-6.3357,-6.325,-6.3311,-6.3313,-6.3304,-6.3543,-6.3586,-6.3752,-6.3465,-6.3468,-6.3471,0,-6.3142,-6.3175,-6.3313,-6.3315,-6.3337,-6.3398,-6.3432,-6.3478,-6.3493,-6.3481,-6.3505,-6.3461,-6.3535,-6.3445,-6.3545,-6.3473,-6.3496,-6.3495,-6.35,-6.35,-6.3398,-6.3545,-6.3805,-6.3828,-6.3507,-6.3504,-6.3501,0,-6.3317,-6.3397,-6.3488,-6.3501,-6.3508,-6.3552,-6.3556,-6.3567,-6.3594,-6.3625,-6.3641,-6.3681,-6.3701,-6.3732,-6.3699,-6.3637,-6.3803,-6.3711,-6.3792,-6.3793,-6.3826,-6.3823,-6.4088,-6.385,-6.385,-6.3849,-6.3849,0,-6.3522,-6.3607,-6.3566,-6.3622,-6.3715,-6.3673,-6.3766,-6.3762,-6.3772,-6.3824,-6.3767,-6.3817,-6.3773,-6.3819,-6.3794,-6.3879,-6.389,-6.388,-6.3871,-6.3882,-6.3883,-6.3893,-6.3879,-6.3856,-6.3854,-6.3853,-6.3852,0,-6.3731,-6.3707,-6.3801,-6.38,-6.3802,-6.387,-6.3868,-6.3918,-6.3904,-6.3971,-6.3985,-6.3962,-6.4013,-6.3985,-6.4038,-6.4021,-6.4129,-6.4108,-6.4124,-6.4116,-6.4197,-6.4188,-6.4473,-6.4507,-6.4252,-6.4255,-6.4257,0,-6.3861,-6.3925,-6.393,-6.3961,-6.397,-6.4021,-6.4048,-6.401,-6.404,-6.4062,-6.4109,-6.4156,-6.419,-6.4275,-6.4262,-6.4302,-6.4278,-6.4375,-6.4283,-6.4291,-6.4273,-6.4268,-6.4272,-6.4392,-6.4395,-6.4397,-6.4399,0,-6.4092,-6.4077,-6.4118,-6.4156,-6.419,-6.4217,-6.424,-6.4269,-6.423,-6.4267,-6.4319,-6.4346,-6.44,-6.4445,-6.4479,-6.4482,-6.4434,-6.4429,-6.4449,-6.4458,-6.4463,-6.4457,-6.4169,-6.4422,-6.4419,-6.4418,-6.4417,-6.4416,-6.4262,-6.4314,-6.4325,-6.4373,-6.4386,-6.4408,-6.4455,-6.4446,-6.4489,-6.4529,-6.4504,-6.4564,-6.4576,-6.4617,-6.4627,-6.4672,-6.4632,-6.4663,-6.4669,-6.4676,-6.4685,-6.446,-6.4679,-6.4678,-6.4677,-6.4677,-6.4676,0,-6.4485,-6.4489,-6.4534,-6.4567,-6.4604,-6.4558,-6.458,-6.4613,-6.4667,-6.4683,-6.4718,-6.4776,-6.482,-6.4811,-6.4851,-6.4888,-6.4867,-6.4899,-6.4894,-6.4894,-6.472,-6.4697,-6.4916,-6.4916,-6.4916,-6.4916,-6.4916,-6.4916,-6.4606,-6.469,-6.4677,-6.4767,-6.477,-6.4827,-6.4844,-6.4863,-6.4875,-6.4943,-6.4979,-6.4974,-6.4979,-6.5018,-6.5056,-6.5052,-6.5067,-6.5107,-6.5095,-6.4931,-6.4907,-6.4884,-6.4862,-6.5112,-6.5112,-6.5264,-6.5266,-6.5267]},{"header":{"parameterUnit":"m.s-1","parameterCategory":1,"la1":30.2991,"la2":30.254,"lo1":-89.0895,"lo2":-89.0444,"dy":0.0017,"dx":0.0017,"nx":28,"ny":28,"refTime":"2023-09-19T21:00:00:Z","depth":0,"parameterNumber":3,"parameterNumberName":"V-component_of_WINDS"},"data":[0,0,0,0,0,0,0,0,0,0,0,0,0,0,0,0,0,0,0,0,0,0,0,0,0,0,0,0,0,0,0,0,0,0,0,0,0,0,0,0,0,0,0,0,0,0,0,0,0,0,0,0,0,0,0,0,0,0,1.791,1.7911,0,1.8014,1.8015,1.8016,1.7986,1.7984,1.7982,1.798,1.8084,1.8089,1.8094,0,0,0,0,0,0,0,0,0,0,0,0,0,1.7685,1.769,1.791,1.7911,1.7912,1.8013,1.8015,1.8016,1.7986,1.7984,1.7981,1.7979,1.8083,1.8088,1.8094,0,0,0,0,0,0,0,0,0,0,0,0,0,1.7785,1.7691,1.7909,1.7909,1.7911,1.8013,1.8015,1.8017,1.7987,1.7984,1.798,1.7977,1.8081,1.8088,1.8095,1.8203,0,0,1.8117,1.812,0,0,0,0,0,0,0,0,1.778,1.7794,1.7908,1.791,1.7911,1.7984,1.7974,1.8079,1.7988,1.7958,1.798,1.7976,1.8053,1.8063,1.8089,1.8208,1.8212,1.8117,1.8122,1.8125,1.8127,0,0,0,0,0,0,0,1.7773,1.7789,1.7951,1.791,1.7912,1.7904,1.7915,1.7994,1.8022,1.796,1.7958,1.7971,1.8053,1.8082,1.8091,1.8214,1.8117,1.8124,1.8128,1.8131,1.8429,1.8433,0,0,0,0,0,0,1.7765,1.7783,1.7947,1.7954,1.7836,1.7911,1.7923,1.7963,1.8021,1.8027,1.7974,1.7969,1.8071,1.8083,1.8095,1.8226,1.8125,1.8132,1.8136,1.8426,1.843,1.8434,0,0,0,0,0,0,1.776,1.778,1.7943,1.7868,1.7888,1.7918,1.7964,1.7967,1.7996,1.8031,1.8036,1.7998,1.8069,1.8085,1.8177,1.8229,1.8135,1.8141,1.8421,1.8427,1.8432,1.8489,0,0,0,0,0,0,1.7754,1.7778,1.782,1.7869,1.7893,1.8024,1.7967,1.7972,1.8008,1.8004,1.8055,1.8061,1.8068,1.8166,1.8184,1.8238,1.8147,1.8417,1.8424,1.843,1.8483,1.8496,1.8507,0,0,0,0,0,1.7746,1.7831,1.7822,1.7842,1.7945,1.8027,1.804,1.8047,1.8013,1.8055,1.8078,1.8059,1.8221,1.8176,1.8196,1.8252,1.8413,1.8422,1.843,1.8477,1.8494,1.8507,0,0,0,0,0,0,1.7785,1.7837,1.7828,1.7931,1.7975,1.8021,1.8074,1.8064,1.8117,1.811,1.8117,1.8129,1.8224,1.8247,1.8196,1.8361,1.8312,1.8325,1.8342,1.8357,1.8369,1.8361,1.8153,0,0,0,0,0,1.7806,1.7868,1.791,1.7997,1.802,1.8044,1.808,1.8082,1.8127,1.8145,1.8175,1.8219,1.8281,1.832,1.8378,1.8487,1.8498,1.8536,1.8548,1.8558,1.8568,1.8629,1.8646,1.8461,1.8461,1.8461,0,0,1.7849,1.7885,1.7924,1.8006,1.804,1.8105,1.8059,1.8129,1.8177,1.8155,1.8245,1.8269,1.8319,1.842,1.8466,1.8443,1.8622,1.8568,1.8576,1.8581,1.8639,1.8656,1.8672,1.8466,1.8465,1.8465,0,0,1.796,1.7994,1.8071,1.8107,1.816,1.8175,1.8194,1.8243,1.8259,1.8349,1.8334,1.8392,1.8496,1.8533,1.8566,1.8695,1.868,1.8714,1.8777,1.8836,1.8851,1.8864,1.8911,1.8927,1.8724,1.8725,1.8725,0,1.8007,1.8104,1.8112,1.8184,1.8221,1.8206,1.8284,1.8319,1.8387,1.8414,1.8387,1.852,1.8552,1.8663,1.8694,1.8721,1.8743,1.8707,1.8848,1.8861,1.8874,1.8918,1.8936,1.8728,1.8728,1.8727,1.8727,0,1.8159,1.8227,1.8283,1.8351,1.8395,1.847,1.8489,1.8533,1.8532,1.8551,1.8643,1.8683,1.8749,1.8776,1.8775,1.8887,1.8871,1.8846,1.8797,1.8895,1.8937,1.8954,1.8734,1.8732,1.8731,1.873,0,0,1.8295,1.8369,1.839,1.8422,1.848,1.8533,1.8608,1.8674,1.8712,1.8761,1.8824,1.8915,1.8893,1.893,1.8934,1.8986,1.9087,1.8955,1.8956,1.8978,1.9214,1.9232,1.9251,1.9078,1.9081,1.9084,1.921,0,1.8412,1.8544,1.8555,1.8674,1.8738,1.8726,1.8791,1.8835,1.8855,1.8912,1.8934,1.8999,1.8965,1.8987,1.9038,1.9063,1.9134,1.9055,1.9137,1.914,1.9124,1.9273,1.9292,1.9408,1.9226,1.9229,1.9231,0,1.8565,1.862,1.8746,1.8798,1.8825,1.8884,1.8947,1.9001,1.9051,1.9062,1.9105,1.9103,1.918,1.913,1.9238,1.9184,1.9218,1.9236,1.9241,1.9248,1.919,1.9284,1.9446,1.9463,1.9257,1.9255,1.9253,0,1.8652,1.8758,1.8848,1.8875,1.8938,1.898,1.9008,1.9055,1.9095,1.915,1.9176,1.9239,1.9273,1.9322,1.9337,1.9299,1.9445,1.9395,1.9457,1.9456,1.9487,1.9485,1.9656,1.951,1.951,1.9509,1.9509,0,1.8781,1.8859,1.8888,1.8943,1.903,1.9042,1.9128,1.9154,1.9196,1.9256,1.925,1.9307,1.9323,1.9383,1.9395,1.9483,1.9498,1.951,1.9512,1.951,1.9509,1.9532,1.9524,1.9514,1.9513,1.9512,1.9511,0,1.8893,1.8915,1.9012,1.9065,1.908,1.9142,1.9187,1.9241,1.9261,1.9337,1.9356,1.9388,1.9458,1.9478,1.9562,1.957,1.9674,1.9669,1.9657,1.9657,1.9718,1.9712,1.991,1.9937,1.9773,1.9775,1.9776,0,1.8973,1.9033,1.9093,1.9133,1.9163,1.9228,1.927,1.9284,1.9328,1.9391,1.9437,1.9507,1.9563,1.9676,1.9707,1.9771,1.9768,1.9833,1.9777,1.9774,1.9769,1.9765,1.9772,1.9843,1.9844,1.9846,1.9847,0,1.9113,1.9123,1.9183,1.9248,1.9298,1.9349,1.9399,1.9432,1.9455,1.9504,1.9577,1.9621,1.9708,1.9777,1.9844,1.9872,1.9864,1.9865,1.9882,1.9881,1.9872,1.9878,1.9686,1.986,1.9858,1.9857,1.9857,1.9856,1.9212,1.9265,1.9316,1.9384,1.9424,1.9471,1.9524,1.9552,1.9613,1.9686,1.9691,1.977,1.982,1.9909,1.9942,2.0004,1.9985,2.001,2.0016,2.0022,2.0028,1.9863,2.0016,2.0016,2.0015,2.0015,2.0015,0,1.9352,1.9385,1.9448,1.9519,1.9573,1.9561,1.9616,1.9662,1.9732,1.978,1.9836,1.9921,1.9989,2.0026,2.0094,2.0137,2.0135,2.0154,2.0151,2.0158,2.0041,2.0019,2.0155,2.0155,2.0155,2.0155,2.0155,2.0155,1.9432,1.9522,1.9537,1.9648,1.968,1.9758,1.9791,1.9835,1.9873,1.9968,2.0025,2.0049,2.0094,2.0165,2.0228,2.0237,2.0263,2.0284,2.0291,2.0181,2.0166,2.0153,2.0132,2.029,2.029,2.0404,2.0405,2.0406]}]]